Location: Marion Hill
(40.7303°N, 80.2959°W)
Time: 02:13:46
(UTC+00:00)

USA 306 - Visible Passes

Search period start: 27 February 2021 00:00
Search period end: 09 March 2021 00:00
Orbit: 565 x 578 km, 54.0° (Epoch: 25 February)

Date Brightness Start Highest point End Pass type
(mag) Time Alt. Az. Time Alt. Az. Time Alt. Az.
27 Feb 4.9 00:38:39 10° WNW 00:42:04 23° NNW 00:45:00 12° NNE visible
28 Feb 5.1 00:40:54 10° WNW 00:43:57 19° NNW 00:46:45 11° NNE visible
01 Mar 5.3 00:43:10 10° NW 00:45:53 16° NNW 00:48:28 10° NNE visible
02 Mar 5.3 00:45:25 10° NW 00:47:49 14° N 00:50:08 10° NNE visible
03 Mar 5.3 00:47:34 10° NW 00:49:48 14° N 00:51:46 11° NNE visible
04 Mar 5.2 00:49:32 10° NNW 00:51:45 14° N 00:53:24 11° NNE visible
05 Mar 5.1 00:51:21 10° NNW 00:53:42 14° N 00:55:01 13° NNE visible
05 Mar 6.1 02:31:00 10° NW 02:31:07 11° NW 02:31:07 11° NW visible
06 Mar 5.0 00:52:59 10° NNW 00:55:38 16° NNE 00:56:38 15° NNE visible
06 Mar 6.0 02:32:30 10° NW 02:32:45 11° NW 02:32:45 11° NW visible
07 Mar 4.8 00:54:33 10° NNW 00:57:32 18° NNE 00:58:16 17° NNE visible
07 Mar 6.0 02:34:01 10° NW 02:34:23 12° NW 02:34:23 12° NW visible
08 Mar 4.5 00:56:03 10° NNW 00:59:24 22° NNE 00:59:56 21° NNE visible
08 Mar 6.0 02:35:35 10° NW 02:36:02 13° NW 02:36:02 13° NW visible
